Time,TemperatureF,DewpointF,PressureIn,WindDirection,WindDirectionDegrees,WindSpeedMPH,WindSpeedGustMPH,Humidity,HourlyPrecipIn,Conditions,Clouds,dailyrainin,SoftwareType,DateUTC
2013-10-03 00:07:00,68.8,66.0,30.04,NNE,23,0.0,1.0,92,0.00,,,0.00,weatherlink.com 1.10,2013-10-03 05:07:00,
2013-10-03 00:22:00,68.9,67.0,30.03,NE,49,0.0,2.0,92,0.00,,,0.00,weatherlink.com 1.10,2013-10-03 05:22:00,
2013-10-03 00:44:00,69.3,67.0,30.03,ENE,74,0.0,2.0,91,0.00,,,0.00,weatherlink.com 1.10,2013-10-03 05:44:00,
2013-10-03 05:11:00,66.1,65.0,30.01,North,4,0.0,1.0,95,0.00,,,0.00,weatherlink.com 1.10,2013-10-03 10:11:00,
2013-10-03 05:23:00,66.2,65.0,30.01,NNE,14,0.0,0.0,95,0.00,,,0.00,weatherlink.com 1.10,2013-10-03 10:23:00,
2013-10-03 05:38:00,66.2,65.0,30.01,NNE,15,0.0,0.0,95,0.00,,,0.00,weatherlink.com 1.10,2013-10-03 10:38:00,
2013-10-03 05:53:00,65.8,64.0,30.01,NNE,16,0.0,0.0,95,0.00,,,0.00,weatherlink.com 1.10,2013-10-03 10:53:00,
2013-10-03 06:08:00,65.7,64.0,30.02,ENE,65,0.0,1.0,95,0.00,,,0.00,weatherlink.com 1.10,2013-10-03 11:08:00,
2013-10-03 06:23:00,66.0,65.0,30.02,NNE,18,0.0,2.0,95,0.00,,,0.00,weatherlink.com 1.10,2013-10-03 11:23:00,
2013-10-03 06:38:00,66.1,65.0,30.02,NE,56,0.0,1.0,95,0.00,,,0.00,weatherlink.com 1.10,2013-10-03 11:38:00,
2013-10-03 06:53:00,66.4,65.0,30.02,South,174,0.0,3.0,94,0.00,,,0.00,weatherlink.com 1.10,2013-10-03 11:53:00,
2013-10-03 07:08:00,66.6,65.0,30.02,ENE,60,0.0,4.0,94,0.00,,,0.00,weatherlink.com 1.10,2013-10-03 12:08:00,
2013-10-03 07:23:00,67.1,65.0,30.03,ESE,104,0.0,5.0,94,0.00,,,0.00,weatherlink.com 1.10,2013-10-03 12:23:00,
2013-10-03 07:38:00,68.5,66.0,30.03,ENE,63,2.0,3.0,92,0.00,,,0.00,weatherlink.com 1.10,2013-10-03 12:38:00,
2013-10-03 07:53:00,69.8,67.0,30.04,East,97,2.0,4.0,90,0.00,,,0.00,weatherlink.com 1.10,2013-10-03 12:53:00,
2013-10-03 08:08:00,71.3,68.0,30.04,East,93,0.0,5.0,88,0.00,,,0.00,weatherlink.com 1.10,2013-10-03 13:08:00,
2013-10-03 08:23:00,72.9,68.0,30.05,NNE,27,5.0,7.0,85,0.00,,,0.00,weatherlink.com 1.10,2013-10-03 13:23:00,
2013-10-03 08:38:00,73.4,69.0,30.05,ESE,122,0.0,6.0,85,0.00,,,0.00,weatherlink.com 1.10,2013-10-03 13:38:00,
2013-10-03 08:53:00,74.6,70.0,30.05,East,101,6.0,6.0,84,0.00,,,0.00,weatherlink.com 1.10,2013-10-03 13:53:00,
2013-10-03 09:08:00,75.6,69.0,30.06,ESE,115,3.0,5.0,81,0.00,,,0.00,weatherlink.com 1.10,2013-10-03 14:08:00,
2013-10-03 09:23:00,76.9,70.0,30.06,ESE,117,0.0,5.0,79,0.00,,,0.00,weatherlink.com 1.10,2013-10-03 14:23:00,
2013-10-03 09:38:00,77.9,70.0,30.07,SE,141,2.0,7.0,76,0.00,,,0.00,weatherlink.com 1.10,2013-10-03 14:38:00,
2013-10-03 09:54:00,78.1,70.0,30.07,East,93,6.0,6.0,76,0.00,,,0.00,weatherlink.com 1.10,2013-10-03 14:54:00,
2013-10-03 10:08:00,79.3,69.0,30.07,NNE,27,3.0,8.0,71,0.00,,,0.00,weatherlink.com 1.10,2013-10-03 15:08:00,
2013-10-03 10:23:00,80.5,69.0,30.07,ESE,113,4.0,6.0,67,0.00,,,0.00,weatherlink.com 1.10,2013-10-03 15:23:00,
2013-10-03 10:38:00,81.3,69.0,30.07,South,169,3.0,7.0,66,0.00,,,0.00,weatherlink.com 1.10,2013-10-03 15:38:00,
2013-10-03 10:53:00,81.1,69.0,30.07,East,98,3.0,8.0,67,0.00,,,0.00,weatherlink.com 1.10,2013-10-03 15:53:00,
2013-10-03 11:08:00,81.5,69.0,30.07,East,89,2.0,5.0,66,0.00,,,0.00,weatherlink.com 1.10,2013-10-03 16:08:00,
2013-10-03 11:23:00,82.3,69.0,30.06,NNW,342,0.0,4.0,65,0.00,,,0.00,weatherlink.com 1.10,2013-10-03 16:23:00,
2013-10-03 11:38:00,84.0,70.0,30.06,East,82,1.0,5.0,62,0.00,,,0.00,weatherlink.com 1.10,2013-10-03 16:38:00,
2013-10-03 11:54:00,83.5,69.0,30.06,NW,321,1.0,5.0,61,0.00,,,0.00,weatherlink.com 1.10,2013-10-03 16:54:00,
2013-10-03 12:09:00,83.3,69.0,30.05,ESE,108,2.0,7.0,62,0.00,,,0.00,weatherlink.com 1.10,2013-10-03 17:09:00,
2013-10-03 12:24:00,83.7,70.0,30.05,ENE,75,1.0,6.0,63,0.00,,,0.00,weatherlink.com 1.10,2013-10-03 17:24:00,
2013-10-03 12:39:00,83.9,69.0,30.04,SE,127,2.0,6.0,61,0.00,,,0.00,weatherlink.com 1.10,2013-10-03 17:39:00,
2013-10-03 12:54:00,85.2,71.0,30.04,East,100,2.0,7.0,62,0.00,,,0.00,weatherlink.com 1.10,2013-10-03 17:54:00,
2013-10-03 13:24:00,85.9,70.0,30.02,ESE,114,6.0,6.0,59,0.00,,,0.00,weatherlink.com 1.10,2013-10-03 18:24:00,
2013-10-03 13:39:00,86.3,70.0,30.02,WNW,290,1.0,4.0,58,0.00,,,0.00,weatherlink.com 1.10,2013-10-03 18:39:00,
2013-10-03 13:54:00,86.5,69.0,30.01,SE,134,0.0,7.0,56,0.00,,,0.00,weatherlink.com 1.10,2013-10-03 18:54:00,
2013-10-03 14:09:00,87.2,69.0,30.01,ESE,122,1.0,6.0,55,0.00,,,0.00,weatherlink.com 1.10,2013-10-03 19:09:00,
2013-10-03 14:24:00,87.2,69.0,30.00,SW,232,1.0,4.0,55,0.00,,,0.00,weatherlink.com 1.10,2013-10-03 19:24:00,
2013-10-03 14:39:00,86.8,69.0,30.00,SSE,153,2.0,7.0,55,0.00,,,0.00,weatherlink.com 1.10,2013-10-03 19:39:00,
2013-10-03 14:54:00,87.1,69.0,29.99,ENE,76,3.0,5.0,56,0.00,,,0.00,weatherlink.com 1.10,2013-10-03 19:54:00,
2013-10-03 15:09:00,87.0,69.0,29.99,WSW,239,0.0,5.0,55,0.00,,,0.00,weatherlink.com 1.10,2013-10-03 20:09:00,
2013-10-03 15:24:00,86.8,69.0,29.99,North,349,3.0,7.0,55,0.00,,,0.00,weatherlink.com 1.10,2013-10-03 20:24:00,
2013-10-03 15:39:00,87.3,69.0,29.99,East,83,5.0,5.0,55,0.00,,,0.00,weatherlink.com 1.10,2013-10-03 20:39:00,
2013-10-03 15:54:00,87.7,70.0,29.99,SSE,163,0.0,4.0,55,0.00,,,0.00,weatherlink.com 1.10,2013-10-03 20:54:00,
2013-10-03 16:09:00,87.4,70.0,29.98,South,184,1.0,5.0,56,0.00,,,0.00,weatherlink.com 1.10,2013-10-03 21:09:00,
2013-10-03 16:24:00,86.4,69.0,29.98,ESE,116,1.0,5.0,57,0.00,,,0.00,weatherlink.com 1.10,2013-10-03 21:24:00,
2013-10-03 16:39:00,85.1,70.0,29.98,SE,131,1.0,5.0,60,0.00,,,0.00,weatherlink.com 1.10,2013-10-03 21:39:00,
2013-10-03 16:55:00,84.1,71.0,29.98,ESE,113,0.0,4.0,65,0.00,,,0.00,weatherlink.com 1.10,2013-10-03 21:55:00,
2013-10-03 17:09:00,83.6,71.0,29.98,East,79,0.0,2.0,66,0.00,,,0.00,weatherlink.com 1.10,2013-10-03 22:09:00,
2013-10-03 17:24:00,82.8,72.0,29.99,SSE,165,0.0,1.0,70,0.00,,,0.00,weatherlink.com 1.10,2013-10-03 22:24:00,
2013-10-03 17:39:00,81.0,72.0,29.99,ESE,110,0.0,1.0,75,0.00,,,0.00,weatherlink.com 1.10,2013-10-03 22:39:00,
2013-10-03 17:54:00,79.3,73.0,29.99,ESE,110,0.0,0.0,80,0.00,,,0.00,weatherlink.com 1.10,2013-10-03 22:54:00,
2013-10-03 18:09:00,77.7,72.0,29.99,ESE,110,0.0,0.0,83,0.00,,,0.00,weatherlink.com 1.10,2013-10-03 23:09:00,
2013-10-03 18:24:00,76.8,72.0,30.00,ESE,108,0.0,1.0,84,0.00,,,0.00,weatherlink.com 1.10,2013-10-03 23:24:00,
2013-10-03 18:39:00,75.9,71.0,30.00,ESE,108,0.0,0.0,85,0.00,,,0.00,weatherlink.com 1.10,2013-10-03 23:39:00,
2013-10-03 18:54:00,75.1,71.0,30.00,ESE,103,0.0,0.0,86,0.00,,,0.00,weatherlink.com 1.10,2013-10-03 23:54:00,
2013-10-03 19:09:00,74.5,71.0,30.00,East,95,0.0,1.0,87,0.00,,,0.00,weatherlink.com 1.10,2013-10-04 00:09:00,
2013-10-03 19:24:00,73.8,70.0,30.00,East,94,0.0,0.0,88,0.00,,,0.00,weatherlink.com 1.10,2013-10-04 00:24:00,
2013-10-03 19:39:00,73.2,70.0,30.01,SSE,158,0.0,0.0,89,0.00,,,0.00,weatherlink.com 1.10,2013-10-04 00:39:00,
2013-10-03 19:54:00,72.4,70.0,30.02,SSE,158,0.0,0.0,91,0.00,,,0.00,weatherlink.com 1.10,2013-10-04 00:54:00,
2013-10-03 20:09:00,72.5,70.0,30.02,SSE,156,0.0,0.0,91,0.00,,,0.00,weatherlink.com 1.10,2013-10-04 01:09:00,
2013-10-03 20:24:00,72.7,70.0,30.02,East,91,0.0,1.0,90,0.00,,,0.00,weatherlink.com 1.10,2013-10-04 01:24:00,
2013-10-03 20:39:00,72.9,70.0,30.03,East,91,0.0,0.0,90,0.00,,,0.00,weatherlink.com 1.10,2013-10-04 01:39:00,
2013-10-03 20:54:00,72.6,70.0,30.03,ESE,108,0.0,0.0,90,0.00,,,0.00,weatherlink.com 1.10,2013-10-04 01:54:00,
2013-10-03 21:09:00,72.9,70.0,30.03,SSE,148,0.0,1.0,89,0.00,,,0.00,weatherlink.com 1.10,2013-10-04 02:09:00,
2013-10-03 21:24:00,72.8,70.0,30.03,SSE,157,0.0,1.0,90,0.00,,,0.00,weatherlink.com 1.10,2013-10-04 02:24:00,
2013-10-03 21:39:00,72.5,70.0,30.03,South,170,0.0,0.0,90,0.00,,,0.00,weatherlink.com 1.10,2013-10-04 02:39:00,
2013-10-03 21:54:00,71.8,69.0,30.04,East,101,0.0,1.0,91,0.00,,,0.00,weatherlink.com 1.10,2013-10-04 02:54:00,
2013-10-03 22:09:00,71.1,69.0,30.04,East,101,0.0,0.0,93,0.00,,,0.00,weatherlink.com 1.10,2013-10-04 03:09:00,
2013-10-03 22:24:00,70.6,69.0,30.04,East,101,0.0,0.0,93,0.00,,,0.00,weatherlink.com 1.10,2013-10-04 03:24:00,
2013-10-03 22:39:00,70.1,68.0,30.04,ESE,105,0.0,0.0,94,0.00,,,0.00,weatherlink.com 1.10,2013-10-04 03:39:00,
2013-10-03 22:54:00,69.7,68.0,30.04,East,89,0.0,0.0,94,0.00,,,0.00,weatherlink.com 1.10,2013-10-04 03:54:00,
2013-10-03 23:39:00,68.8,67.0,30.03,ENE,67,0.0,0.0,95,0.00,,,0.00,weatherlink.com 1.10,2013-10-04 04:39:00,
2013-10-03 23:54:00,68.5,67.0,30.03,ENE,67,0.0,0.0,96,0.00,,,0.00,weatherlink.com 1.10,2013-10-04 04:54:00,